Weather History for Middlesboro, KY

Change the Weather History Date:

Sunday, February 9, 2014

  Actual Average (KLOZ) Record (KLOZ)
Temperature  
Mean Temperature 36 °F 38 °F  
Max Temperature 41 °F 48 °F 70 °F (2001)
Min Temperature 32 °F 28 °F -2 °F (1971)
Degree Days  
Heating Degree Days 28 27  
Month to date heating degree days 248  
Since 1 July heating degree days 2811  
Cooling Degree Days 0 0  
Month to date cooling degree days 0  
Year to date cooling degree days 0  
Moisture  
Dew Point 33 °F    
Average Humidity 88    
Maximum Humidity 96    
Minimum Humidity 80    
Precipitation  
Precipitation 0.00 in 0.13 in 1.28 in (1994)
Month to date precipitation 1.16  
Year to date precipitation 4.70  
Sea Level Pressure  
Sea Level Pressure 30.11 in    
Wind  
Wind Speed 1 mph (North)    
Max Wind Speed 9 mph    
Max Gust Speed -    
Visibility 10 miles    
Events Rain    
T = Trace of Precipitation, MM = Missing Value Source: NWS Daily Summary

Daily Weather History Graph

Daily Weather History Graph

Search for Another Location

Airport:

Trip Planner

Search our weather history database for the weather conditions in past years. The results will help you decide how hot, cold, wet, or windy it might be!

Date:

Astronomy

Feb. 09, 2014 Rise Set
Actual Time 6:29 AM CST 5:09 PM CST
Civil Twilight 6:02 AM CST 5:36 PM CST
Nautical Twilight 5:32 AM CST 6:06 PM CST
Astronomical Twilight 5:02 AM CST 6:36 PM CST
Moon 12:51 PM CST (2/9) 2:30 AM CST (2/9)
Length of Visible Light 11h 33m
Length of Day
10h 39m
Waxing Gibbous, 77% of the Moon is Illuminated
Feb 9
Waxing Gibbous
Feb 14
Full
Feb 22
Last Quarter
Mar 1
New
Mar 8
First Quarter

Hourly Weather History & Observations

Time (CST) Temp. Windchill Dew Point Humidity Pressure Visibility Wind Dir Wind Speed Gust Speed Precip Events Conditions
12:15 AM 35.1 °F - 31.1 °F 85% 30.13 in 10.0 mi Calm Calm - N/A   Overcast
12:35 AM 35.4 °F - 31.8 °F 87% 30.12 in 10.0 mi Calm Calm - N/A   Overcast
12:55 AM 35.4 °F - 31.6 °F 86% 30.12 in 10.0 mi Calm Calm - N/A   Overcast
1:15 AM 35.1 °F - 32.0 °F 89% 30.12 in 10.0 mi Calm Calm - N/A   Overcast
1:35 AM 34.9 °F - 32.0 °F 89% 30.12 in 10.0 mi Calm Calm - N/A   Overcast
1:55 AM 35.2 °F - 32.0 °F 88% 30.13 in 10.0 mi Calm Calm - N/A   Overcast
2:15 AM 35.1 °F - 32.0 °F 89% 30.13 in 7.0 mi Calm Calm - N/A   Overcast
2:35 AM 35.1 °F - 32.0 °F 89% 30.13 in 10.0 mi Calm Calm - N/A   Overcast
2:55 AM 35.2 °F - 32.0 °F 88% 30.12 in 10.0 mi Calm Calm - N/A   Overcast
3:15 AM 35.1 °F - 32.5 °F 91% 30.12 in 10.0 mi Calm Calm - N/A   Overcast
3:35 AM 34.9 °F - 32.4 °F 91% 30.11 in 10.0 mi Calm Calm - N/A   Overcast
3:55 AM 35.2 °F - 32.0 °F 88% 30.11 in 10.0 mi Calm Calm - N/A   Overcast
4:15 AM 35.1 °F - 32.0 °F 89% 30.10 in 10.0 mi Calm Calm - N/A   Overcast
4:35 AM 35.1 °F - 32.2 °F 89% 30.10 in 10.0 mi Calm Calm - N/A   Overcast
4:55 AM 34.9 °F - 32.2 °F 90% 30.09 in 10.0 mi Calm Calm - N/A   Overcast
5:15 AM 34.9 °F - 32.0 °F 89% 30.10 in 10.0 mi Calm Calm - N/A   Overcast
5:35 AM 34.9 °F - 32.2 °F 90% 30.10 in 10.0 mi Calm Calm - N/A   Overcast
5:55 AM 35.2 °F - 32.0 °F 88% 30.10 in 10.0 mi Calm Calm - N/A   Overcast
6:15 AM 35.1 °F - 32.2 °F 89% 30.09 in 10.0 mi Calm Calm - N/A   Overcast
6:35 AM 35.1 °F - 32.7 °F 91% 30.10 in 10.0 mi Calm Calm - N/A   Overcast
6:55 AM 35.6 °F - 32.4 °F 88% 30.10 in 10.0 mi Calm Calm - N/A   Overcast
7:15 AM 35.8 °F - 32.9 °F 89% 30.09 in 10.0 mi Calm Calm - N/A   Overcast
7:35 AM 36.0 °F - 32.9 °F 89% 30.08 in 10.0 mi Calm Calm - N/A   Overcast
7:55 AM 36.3 °F - 32.7 °F 87% 30.09 in 10.0 mi Calm Calm - N/A   Overcast
8:15 AM 36.7 °F - 32.4 °F 84% 30.09 in 10.0 mi Calm Calm - N/A   Overcast
8:35 AM 37.9 °F - 32.9 °F 82% 30.11 in 10.0 mi Calm Calm - N/A   Overcast
8:55 AM 38.3 °F - 32.7 °F 80% 30.10 in 10.0 mi Calm Calm - N/A   Overcast
9:15 AM 38.3 °F - 33.8 °F 84% 30.11 in 10.0 mi Calm Calm - N/A   Light Drizzle
9:35 AM 38.5 °F - 34.2 °F 84% 30.11 in 7.0 mi Calm Calm - N/A   Drizzle
9:55 AM 38.5 °F - 34.5 °F 86% 30.11 in 10.0 mi Calm Calm - N/A   Drizzle
10:15 AM 39.2 °F 35.9 °F 35.1 °F 85% 30.10 in 10.0 mi South 4.6 mph - N/A   Overcast
10:35 AM 39.2 °F 34.2 °F 34.9 °F 84% 30.09 in 10.0 mi South 6.9 mph - N/A   Overcast
10:55 AM 39.6 °F 34.0 °F 34.9 °F 83% 30.09 in 10.0 mi South 8.1 mph - N/A   Overcast
11:15 AM 39.7 °F 37.6 °F 34.7 °F 82% 30.09 in 10.0 mi South 3.5 mph - N/A   Overcast
11:35 AM 40.3 °F 36.3 °F 35.2 °F 82% 30.08 in 10.0 mi South 5.8 mph - N/A   Overcast
11:55 AM 40.6 °F 38.6 °F 35.8 °F 83% 30.06 in 10.0 mi SE 3.5 mph - N/A   Drizzle
12:15 PM 40.5 °F 37.3 °F 36.3 °F 85% 30.06 in 10.0 mi South 4.6 mph - N/A   Light Drizzle
12:35 PM 41.2 °F - 36.3 °F 83% 30.05 in 10.0 mi Calm Calm - N/A   Overcast
12:55 PM 41.2 °F - 36.1 °F 82% 30.05 in 10.0 mi Calm Calm - N/A   Drizzle
1:15 PM 41.5 °F - 37.4 °F 85% 30.05 in 7.0 mi Calm Calm - N/A Rain Rain
1:35 PM 41.9 °F 39.0 °F 37.4 °F 84% 30.04 in 7.0 mi SW 4.6 mph - N/A   Drizzle
1:55 PM 41.9 °F 40.0 °F 37.4 °F 84% 30.03 in 10.0 mi WSW 3.5 mph - N/A   Drizzle
2:15 PM 40.6 °F - 38.1 °F 91% 30.04 in 10.0 mi Calm Calm - N/A   Drizzle
2:35 PM 41.4 °F - 37.2 °F 85% 30.06 in 10.0 mi Calm Calm - N/A   Overcast
2:55 PM 40.8 °F 36.2 °F 36.0 °F 83% 30.06 in 10.0 mi NNW 6.9 mph - N/A   Overcast
3:15 PM 39.6 °F 36.3 °F 35.8 °F 86% 30.07 in 7.0 mi WSW 4.6 mph - N/A   Light Drizzle
3:35 PM 39.2 °F 35.0 °F 34.9 °F 84% 30.08 in 10.0 mi North 5.8 mph - N/A   Overcast
3:55 PM 38.5 °F 32.7 °F 34.5 °F 86% 30.10 in 10.0 mi North 8.1 mph - N/A   Overcast
4:15 PM 37.6 °F 31.6 °F 34.0 °F 87% 30.11 in 10.0 mi NNW 8.1 mph - N/A   Overcast
4:35 PM 37.2 °F 32.6 °F 33.8 °F 87% 30.12 in 10.0 mi NW 5.8 mph - N/A   Overcast
4:55 PM 36.5 °F 32.7 °F 33.6 °F 89% 30.14 in 10.0 mi NNE 4.6 mph - N/A   Overcast
5:15 PM 35.8 °F 30.9 °F 33.3 °F 91% 30.14 in 10.0 mi NNE 5.8 mph - N/A   Overcast
5:35 PM 35.8 °F 31.9 °F 32.5 °F 88% 30.15 in 10.0 mi North 4.6 mph - N/A   Overcast
5:55 PM 35.6 °F - 32.2 °F 87% 30.16 in 10.0 mi Calm Calm - N/A   Overcast
6:15 PM 35.2 °F - 32.2 °F 89% 30.18 in 10.0 mi Calm Calm - N/A   Overcast
6:35 PM 34.7 °F - 32.2 °F 91% 30.18 in 7.0 mi Calm Calm - N/A Rain Light Rain
6:55 PM 33.8 °F - 32.4 °F 94% 30.17 in 7.0 mi Calm Calm - N/A Rain Light Rain
7:15 PM 33.8 °F - 32.9 °F 96% 30.15 in 10.0 mi Calm Calm - N/A   Light Drizzle
7:35 PM 33.8 °F - 32.5 °F 95% 30.15 in 10.0 mi Calm Calm - N/A   Overcast
7:55 PM 33.8 °F - 32.2 °F 94% 30.16 in 10.0 mi Calm Calm - N/A   Overcast
8:15 PM 33.8 °F - 32.2 °F 94% 30.18 in 10.0 mi Calm Calm - N/A   Overcast
8:35 PM 33.8 °F - 32.5 °F 95% 30.16 in 10.0 mi Calm Calm - N/A   Overcast
8:55 PM 33.8 °F - 32.9 °F 96% 30.15 in 10.0 mi Calm Calm - N/A   Overcast
9:15 PM 33.4 °F - 32.2 °F 95% 30.17 in 10.0 mi Calm Calm - N/A   Overcast
9:35 PM 33.4 °F 29.1 °F 32.2 °F 95% 30.16 in 10.0 mi NNW 4.6 mph - N/A   Overcast
9:55 PM 33.4 °F 28.1 °F 30.9 °F 90% 30.15 in 10.0 mi North 5.8 mph - N/A   Overcast
10:15 PM 33.1 °F 25.5 °F 30.0 °F 89% 30.14 in 10.0 mi North 9.2 mph - N/A   Overcast
10:35 PM 32.9 °F 27.5 °F 29.8 °F 88% 30.14 in 10.0 mi NNE 5.8 mph - N/A   Overcast
10:55 PM 32.9 °F 25.3 °F 30.0 °F 89% 30.14 in 10.0 mi NNE 9.2 mph - N/A   Overcast
11:15 PM 32.2 °F 25.8 °F 29.7 °F 90% 30.15 in 10.0 mi NNE 6.9 mph - N/A   Overcast
11:35 PM 32.2 °F 26.7 °F 29.5 °F 90% 30.15 in 10.0 mi NNE 5.8 mph - N/A   Overcast
11:55 PM 32.2 °F 25.8 °F 29.3 °F 89% 30.16 in 10.0 mi North 6.9 mph - N/A   Overcast